Location: ????????
(55.3155°N, 39.2900°E)
Time: 20:41:35
(UTC+00:00)

Envisat - Visible Passes

Search period start: 10 November 2025 00:00
Search period end: 20 November 2025 00:00
Orbit: 761 x 763 km, 98.4° (Epoch: 08 November)

Date Brightness Start Highest point End Pass type
(mag) Time Alt. Az. Time Alt. Az. Time Alt. Az.
10 Nov 5.1 00:35:35 10° NNE 00:37:04 20° NNE 00:37:04 20° NNE visible
10 Nov 4.8 02:15:24 10° N 02:17:12 17° NNW 02:17:12 17° NNW visible
10 Nov 5.6 23:57:53 10° NNE 23:58:46 15° NNE 23:58:46 15° NNE visible
11 Nov 4.8 01:37:08 10° N 01:38:54 20° N 01:38:54 20° N visible
11 Nov 6.0 23:20:28 10° NNE 23:20:28 10° NNE 23:20:28 10° NNE visible
12 Nov 5.0 00:59:07 10° N 01:00:35 19° N 01:00:35 19° N visible
12 Nov 4.9 02:39:23 10° NNW 02:40:42 13° NNW 02:40:42 13° NNW visible
13 Nov 5.4 00:21:17 10° NNE 00:22:17 16° NNE 00:22:17 16° NNE visible
13 Nov 4.9 02:00:53 10° N 02:02:25 17° NNW 02:02:25 17° NNW visible
13 Nov 5.9 23:43:40 10° NNE 23:44:00 12° NNE 23:44:00 12° NNE visible
14 Nov 5.0 01:22:43 10° N 01:24:06 18° N 01:24:06 18° N visible
14 Nov 5.1 03:03:58 10° NNW 03:04:14 10° NNW 03:04:14 10° NNW visible
15 Nov 5.3 00:44:46 10° NNE 00:45:49 16° NNE 00:45:49 16° NNE visible
15 Nov 5.0 02:24:44 10° N 02:25:56 14° NNW 02:25:56 14° NNW visible
16 Nov 5.7 00:07:00 10° NNE 00:07:31 13° NNE 00:07:31 13° NNE visible
16 Nov 5.0 01:46:24 10° N 01:47:39 16° N 01:47:39 16° N visible
17 Nov 5.2 01:08:20 10° N 01:09:21 16° N 01:09:21 16° N visible
17 Nov 5.1 02:48:52 10° NNW 02:49:28 11° NNW 02:49:28 11° NNW visible
18 Nov 5.5 00:30:26 10° NNE 00:31:03 14° NNE 00:31:03 14° NNE visible
18 Nov 5.1 02:10:10 10° N 02:11:10 14° NNW 02:11:10 14° NNW visible
19 Nov 5.2 01:31:57 10° N 01:32:52 15° N 01:32:52 15° N visible
